STARLINK-5673, 55462

Orbit data source: Space-Track

STARLINK-5673, 55462 is a payload satellite owned by SpaceX/Seattle (US) in LEO that was launched on Thu, 02 Feb 2023 UTC via an FALCON 9 launch vehicle from the Air Force Eastern Test Range (AFETR). Payload-class satellites include a variety of spacecraft equipped with specific instruments for various scientific and technological missions. These include communications satellites like Starlink; space stations such as the ISS; scientific satellites like the Hubble; Earth observation satellites from companies like Planet Labs, Umbra, and HawkEye 360; GPS; miniature CubeSats for education and research; and military/defense satellites.

Loading next visibility...
Identifier
55462, 2023-015P
Orbit
LEO
Country
Flag of USUS
Related business
Manufacturer
SpaceX/Seattle
Mission
Operational Commercial Communications
Bus & Motor
STARLINK, Unknown motor
Mass
305 kg wet, ~290 kg dry
Launch date (UTC)
2023-02-02 (3 years ago)
Launch vehicle
FALCON 9
Launch site
Air Force Eastern Test Range (AFETR)
Object type
Payload
Rocket body
Debris
Shape & HBR
Box + 1 Pan, 10.1 m
Radar Cross Section
13.562 m², Large (>1 m²)

Expand to show TLE details & history
Last TLE update: 2 days ago

TLE from 2 days ago
0 STARLINK-5673
1 55462U 23015P   26034.38064050 -.00000496  00000-0 -21648-4 0  9990
2 55462  43.0006 152.3628 0001156 275.2067  84.8643 15.02533893165594
Epoch: 2026-02-03T09:08Z
TLE epoch observation values (Epoch: 2026-02-03T09:08:07.339Z)
Latitude
-0.00003°
Longitude
-118.23021°
Altitude
558.792 km
Speed
7.584 km/s
True Right ascension
10h 09m 27s
True Declination
0° 00' 00"
Sunlit
Object was in full shadow at epoch
Visualization orbit readout
Latitude
Unknown
Longitude
Unknown
Altitude
Unknown
Speed
Unknown
Apparent Right ascension
Unknown
Apparent Declination
Unknown
Sunlit
N/A
Visualization observer readout
Local Sidereal Time
04:39:22
Azimuth
Unknown
Elevation
Unknown
Doppler factor
Unknown
Orbital elements
Apogee altitude
561.812 km
Perigee altitude
560.208 km
Semi-major axis
6,939.147 km
Eccentricity
0.00012
Inclination
43.0006°
RAAN
152.3628°
Arg. of periapsis
275.2067°
True anomaly
84.87749°
Mean anomaly
84.8643°
Eccentric anomaly
84.8709°
Mean motion
3.75478 °/min
Orbital period
95.88 mins
BSTAR
-0.000021648
Loading maneuver chart data...
Computing Atmospheric mass density...
Loading historical data...
Loading historical data...
Loading historical data...
Loading historical data...
Loading historical data...
Loading historical data...
Loading historical data...

Documentation

Showing up to 5 results
|